Location: Ku?niki
(51.4449°N, 17.8974°E)
Time: 11:51:06
(UTC+00:00)

Cosmos 1891 Rocket - Pass Details

Date: 18 September 2020
Orbit: 934 x 1018 km, 82.9° (Epoch: 30 October)

Event Time Altitude Azimuth Distance (km) Brightness Sun altitude
Rises 18:26:00 0° 187° (S) 3,642 7.3 -14.6°
Reaches altitude 10° 18:28:31 10° 188° (S) 2,688 6.7 -15.0°
Maximum altitude 18:34:40 90° 107° (ESE) 955 4.4 -15.9°
Drops below altitude 10° 18:40:46 10° 10° (N) 2,664 7.0 -16.7°
Sets 18:43:14 0° 11° (N) 3,608 7.7 -17.1°
